Cloud_Cover
0 2 12 100 100 100 100 63 70 83 6 5 5 5 7 5 5 5 5 2 0 5 2 7 2 6 5 5 6 5 5 11 7
7 0 0 5 14 11 51 95 23 99 95 32 5 5 5 30 18 11 47 45 5 0 0 1 5 5 5 6 5 10 5 5 8
11 0 0 0 2 5 5 5 6 80 100 100 92 33 15 35 31 32 46 88 43 5 5 4 5 5 5 4 1 2 4 5 5
0 0 0 0 0 0 3 5 5 5 10 99 100 100 94 73 62 58 9 5 5 55 49 38 6 5 5 5 5 4 5 5 5
0 0 0 0 0 0 0 0 0 3 5 6 6 96 100 100 94 100 100 100 82 5 6 5 5 5 1 4 0 5 5 5 5
0 0 0 2 13 0 0 0 0 0 0 19 5 14 94 100 100 100 91 85 30 5 5 5 5 5 5 5 0 1 0 4 5
0 0 0 0 16 74 3 0 0 0 0 0 33 66 15 42 82 98 95 99 79 5 5 5 5 5 5 5 5 4 5 5 5
0 0 0 0 0 0 28 3 0 0 0 0 19 31 12 8 44 91 78 40 100 30 5 5 3 4 2 5 5 5 5 5 2
0 0 0 0 0 0 0 3 7 5 0 0 0 19 0 0 24 55 61 26 7 55 51 19 5 12 25 0 4 4 6 27 9
0 0 0 0 0 0 0 0 0 42 49 11 5 16 23 2 57 8 71 95 44 41 67 34 5 5 5 15 13 1 0 2 2
0 0 0 0 0 0 0 0 0 0 53 100 55 48 42 100 92 100 56 19 76 84 71 67 49 5 5 5 5 5 5 5 5
0 0 0 0 0 0 0 0 0 0 0 8 1 44 12 100 100 100 100 100 85 99 100 96 99 15 5 5 5 5 5 5 5
10 0 0 0 0 0 0 0 0 0 0 0 6 12 24 38 100 100 100 100 100 100 100 100 100 100 41 67 69 5 5 5 5
0 0 0 0 0 0 0 0 0 0 0 0 3 63 33 6 95 100 100 100 100 100 99 100 100 100 100 100 100 76 42 32 10
100 20 0 0 0 0 4 1 0 0 0 0 0 2 76 46 79 100 100 100 100 100 98 100 100 100 100 100 100 100 100 99 100
25 1 0 0 0 2 5 90 5 0 0 0 0 0 45 98 31 97 98 100 100 100 100 100 100 100 92 100 100 100 100 100 100
26 0 28 25 20 5 5 26 58 80 10 0 8 10 38 100 100 100 100 100 100 100 100 100 100 100 100 100 100 100 100 100 100
37 2 100 100 62 11 2 5 84 85 5 2 29 12 17 100 92 100 90 100 100 100 100 100 100 100 100 100 100 100 100 100 99
0 50 100 100 100 59 5 54 6 80 60 26 87 7 46 96 94 93 96 100 100 100 100 100 100 100 100 100 100 100 100 100 100
5 72 100 100 100 55 53 99 92 100 94 25 95 6 100 96 7 80 98 100 100 100 100 100 100 100 100 100 100 100 100 100 100